Location: Newark
(45.4000°N, 7.8167°E)
Time: 18:15:26
(UTC+00:00)

ISS - Visible Passes

Search period start: 15 July 2019 00:00
Search period end: 25 July 2019 00:00
Orbit: 409 x 419 km, 51.6° (Epoch: 16 July)

Date Brightness Start Highest point End Pass type
(mag) Time Alt. Az. Time Alt. Az. Time Alt. Az.
15 Jul -1.6 00:21:16 10° WNW 00:24:11 27° N 00:27:06 10° NE visible
15 Jul -2.0 01:58:22 10° NW 02:01:27 34° NNE 02:04:32 10° E visible
15 Jul-0.520:25:39ENE20:25:39ENE20:17:25Svisible
15 Jul -3.7 21:58:11 67° ENE 21:58:11 67° ENE 22:01:08 10° ENE visible
15 Jul -1.9 23:31:44 10° WNW 23:34:45 31° N 23:37:46 10° NE visible
16 Jul -1.7 01:09:04 10° NW 01:12:02 29° N 01:15:00 10° ENE visible
16 Jul -3.8 02:45:43 10° WNW 02:49:03 84° NNE 02:52:21 10° ESE visible
16 Jul -3.7 21:05:18 10° SW 21:08:33 52° SE 21:11:48 10° ENE visible
16 Jul -2.2 22:42:11 10° W 22:45:20 37° NNW 22:48:28 10° NE visible
17 Jul -1.6 00:19:41 10° WNW 00:22:35 27° N 00:25:29 10° ENE visible
17 Jul -3.1 01:56:27 10° WNW 01:59:44 56° NNE 02:02:59 10° ESE visible
17 Jul -3.0 20:16:21 10° SSW 20:19:21 31° SE 20:22:21 10° ENE visible
17 Jul -2.8 21:52:41 10° W 21:55:56 49° NNW 21:59:12 10° NE visible
17 Jul -1.5 23:30:13 10° WNW 23:33:07 26° N 23:36:01 10° ENE visible
18 Jul -2.4 01:07:10 10° NW 01:10:21 41° NNE 01:13:31 10° E visible
18 Jul -3.4 02:43:54 10° WNW 02:47:03 41° SW 02:50:11 10° SE visible
18 Jul -3.5 21:03:14 10° WSW 21:06:34 71° NNW 21:09:55 10° ENE visible
18 Jul -1.6 22:40:42 10° WNW 22:43:38 28° N 22:46:35 10° NE visible
19 Jul -2.0 00:17:51 10° NW 00:20:55 33° NNE 00:23:58 10° E visible
19 Jul -3.9 01:54:30 10° WNW 01:57:48 69° SSW 02:01:05 10° SE visible
19 Jul -3.9 20:13:55 10° SW 20:17:15 75° SSE 20:20:36 10° ENE visible
19 Jul -1.9 21:51:07 10° WNW 21:54:10 32° NNW 21:57:13 10° NE visible
19 Jul -1.7 23:28:29 10° NW 23:31:27 28° N 23:34:24 10° ENE visible
20 Jul -3.7 01:05:10 10° WNW 01:08:30 76° NNE 01:09:03 57° E visible
20 Jul -2.0 02:45:52 16° SSW 02:45:52 16° SSW 02:47:08 10° S visible
20 Jul -2.3 21:01:33 10° W 21:04:43 39° NNW 21:07:53 10° NE visible
20 Jul -1.6 22:39:03 10° WNW 22:41:57 27° N 22:44:51 10° ENE visible
21 Jul -2.3 00:15:51 10° NW 00:17:58 33° NW 00:17:58 33° NW visible
21 Jul -2.9 20:11:59 10° WSW 20:15:17 53° NNW 20:18:35 10° NE visible
21 Jul -1.6 21:49:31 10° WNW 21:52:26 27° N 21:55:21 10° ENE visible
21 Jul -2.3 23:26:32 10° NW 23:29:19 37° N 23:29:19 37° N visible
22 Jul -1.7 20:59:56 10° WNW 21:02:55 29° N 21:05:54 10° NE visible
22 Jul -2.0 22:37:10 10° NW 22:40:12 31° NNE 22:41:05 27° NE visible
23 Jul -0.8 00:13:48 10° WNW 00:13:52 10° WNW 00:13:52 10° WNW visible
23 Jul -2.0 20:10:19 10° W 20:13:25 34° NNW 20:16:30 10° NE visible
23 Jul -1.8 21:47:44 10° NW 21:50:41 28° N 21:52:59 14° ENE visible
23 Jul -1.6 23:24:26 10° WNW 23:25:48 22° NW 23:25:48 22° NW visible
24 Jul -1.7 20:58:14 10° WNW 21:01:08 27° N 21:04:02 10° ENE visible
24 Jul -2.6 22:35:05 10° NW 22:37:47 42° N 22:37:47 42° N visible
